DW2819 Weather Reports


Display with metric or nautical units.
time (UTC)temp
F
wind
direction
speed
MPH
gust
MPH
rain 1hr
in
rain 24hr
in
rain mn
in
humidity
%
barometer
mb
20210804085038 64 337 0.0 4.0 0.00 0.00 0.00 55 1012.4
20210804084533 65 0 0.0 4.0 0.00 0.00 0.00 54 1012.4
20210804084032 65 358 0.0 6.0 0.00 0.00 0.00 54 1012.4
20210804083533 66 0 0.0 6.0 0.00 0.00 0.00 52 1012.2
20210804083032 66 329 0.0 4.0 0.00 0.00 0.00 53 1012.1
20210804082531 65 319 0.0 9.0 0.00 0.00 0.00 56 1012.2
20210804082034 64 62 0.0 9.0 0.00 0.00 0.00 66 1012.1
20210804081530 64 0 0.0 5.0 0.00 0.00 0.00 62 1012.2
20210804081031 63 292 0.0 1.0 0.00 0.00 0.00 74 1012.1
20210804080531 61 292 0.0 0.0 0.00 0.00 0.00 81 1012.3
20210804080036 59 292 0.0 0.0 0.00 0.00 0.00 84 1012.2
20210804075531 59 292 0.0 0.0 0.00 0.00 0.00 83 1012.3
20210804075031 60 292 0.0 0.0 0.00 0.00 0.00 82 1012.3
20210804074535 61 292 0.0 0.0 0.00 0.00 0.00 79 1012.3
20210804074021 62 292 0.0 0.0 0.00 0.00 0.00 73 1012.4
20210804073519 63 289 0.0 0.0 0.00 0.00 0.00 73 1012.3
20210804073019 64 289 0.0 0.0 0.00 0.00 0.00 69 1012.2
20210804072513 64 289 0.0 1.0 0.00 0.00 0.00 67 1012.1
20210804072014 62 289 0.0 1.0 0.00 0.00 0.00 70 1012.1
20210804071504 61 347 0.0 1.0 0.00 0.00 0.00 73 1012.1
20210804071012 61 326 0.0 0.0 0.00 0.00 0.00 71 1012.1
20210804070455 62 329 0.0 0.0 0.00 0.00 0.00 72 1012.1
20210804065954 62 329 0.0 0.0 0.00 0.00 0.00 72 1012.1
20210804065455 61 329 0.0 0.0 0.00 0.00 0.00 72 1012.1
20210804064950 62 329 0.0 0.0 0.00 0.00 0.00 72 1012.1
20210804064449 62 329 0.0 1.0 0.00 0.00 0.00 70 1012.0
20210804063939 63 329 0.0 1.0 0.00 0.00 0.00 70 1012.0
20210804063437 63 329 0.0 0.0 0.00 0.00 0.00 69 1011.9
20210804062936 62 329 0.0 0.0 0.00 0.00 0.00 72 1011.9
20210804062432 62 329 0.0 0.0 0.00 0.00 0.00 72 1011.9
20210804061935 61 329 0.0 0.0 0.00 0.00 0.00 77 1011.8
20210804061430 61 329 0.0 0.0 0.00 0.00 0.00 75 1011.8
20210804060932 60 329 0.0 2.0 0.00 0.00 0.00 78 1011.7
20210804060431 60 329 0.0 2.0 0.00 0.00 0.00 79 1011.7
20210804055931 60 329 0.0 0.0 0.00 0.00 0.00 79 1011.6
20210804055432 59 329 0.0 0.0 0.00 0.00 0.00 82 1011.6
20210804054931 58 329 0.0 0.0 0.00 0.00 0.00 83 1011.5
20210804054431 58 329 0.0 0.0 0.00 0.00 0.00 84 1011.5
20210804053932 57 329 0.0 0.0 0.00 0.00 0.00 87 1011.5
20210804053428 56 329 0.0 0.0 0.00 0.00 0.00 89 1011.5
20210804052928 56 329 0.0 0.0 0.00 0.00 0.00 90 1011.5
20210804052408 55 329 0.0 0.0 0.00 0.00 0.00 91 1011.6
20210804051909 55 329 0.0 0.0 0.00 0.00 0.00 93 1011.5
20210804051406 54 329 0.0 0.0 0.00 0.00 0.00 93 1011.5
20210804050905 53 329 0.0 0.0 0.00 0.00 0.00 93 1011.4
20210804050403 53 329 0.0 0.0 0.00 0.00 0.00 93 1011.4
20210804045906 53 329 0.0 0.0 0.00 0.00 0.00 93 1011.4
20210804045402 52 329 0.0 0.0 0.00 0.00 0.00 94 1011.4
20210804044903 52 329 0.0 0.0 0.00 0.00 0.00 94 1011.3
20210804044404 51 329 0.0 0.0 0.00 0.00 0.00 94 1011.2
20210804043902 51 329 0.0 0.0 0.00 0.00 0.00 94 1011.2
20210804043403 50 329 0.0 0.0 0.00 0.00 0.00 94 1011.2
20210804042903 50 329 0.0 0.0 0.00 0.00 0.00 94 1011.2
20210804042402 49 329 0.0 0.0 0.00 0.00 0.00 94 1011.2
20210804041901 49 329 0.0 0.0 0.00 0.00 0.00 93 1011.2
20210804041405 48 329 0.0 0.0 0.00 0.00 0.00 93 1011.2
20210804040903 48 329 0.0 0.0 0.00 0.00 0.00 93 1011.1
20210804040402 47 329 0.0 0.0 0.00 0.00 0.00 93 1011.1
20210804035902 47 329 0.0 0.0 0.00 0.00 0.00 93 1011.1
20210804035402 47 329 0.0 0.0 0.00 0.00 0.00 93 1011.1
20210804034903 46 329 0.0 0.0 0.00 0.00 0.00 92 1011.1
20210804034403 46 329 0.0 0.0 0.00 0.00 0.00 93 1011.1
20210804033903 46 329 0.0 0.0 0.00 0.00 0.00 92 1011.0
20210804033356 45 329 0.0 0.0 0.00 0.00 0.00 92 1011.0
20210804032854 45 329 0.0 0.0 0.00 0.00 0.00 92 1011.0
20210804032353 45 329 0.0 0.0 0.00 0.00 0.00 92 1011.0
20210804031854 45 329 0.0 0.0 0.00 0.00 0.00 92 1010.9
20210804031350 45 329 0.0 0.0 0.00 0.00 0.00 92 1011.0
20210804030851 44 329 0.0 0.0 0.00 0.00 0.00 92 1010.9
20210804030349 44 329 0.0 0.0 0.00 0.00 0.00 92 1011.0
20210804025851 44 329 0.0 0.0 0.00 0.00 0.00 92 1010.9
20210804025346 44 329 0.0 0.0 0.00 0.00 0.00 92 1010.9
20210804024845 44 329 0.0 0.0 0.00 0.00 0.00 92 1010.8
20210804024342 44 329 0.0 0.0 0.00 0.00 0.00 92 1010.8
20210804023838 44 329 0.0 0.0 0.00 0.00 0.00 92 1010.8
20210804023334 44 329 0.0 0.0 0.00 0.00 0.00 92 1010.8
20210804022835 44 329 0.0 0.0 0.00 0.00 0.00 92 1010.7
20210804022335 45 329 0.0 0.0 0.00 0.00 0.00 92 1010.7
20210804021832 45 329 0.0 0.0 0.00 0.00 0.00 92 1010.6
20210804021333 45 329 0.0 0.0 0.00 0.00 0.00 92 1010.5
20210804020831 45 329 0.0 0.0 0.00 0.00 0.00 92 1010.5
20210804020333 45 329 0.0 0.0 0.00 0.00 0.00 92 1010.5
20210804015835 45 329 0.0 0.0 0.00 0.00 0.00 92 1010.5
20210804015334 45 329 0.0 0.0 0.00 0.00 0.00 92 1010.4
20210804014830 45 329 0.0 0.0 0.00 0.00 0.00 91 1010.4
20210804014332 46 329 0.0 0.0 0.00 0.00 0.00 92 1010.4
20210804013831 46 329 0.0 0.0 0.00 0.00 0.00 91 1010.4
20210804013331 46 329 0.0 0.0 0.00 0.00 0.00 91 1010.3
20210804012830 46 329 0.0 0.0 0.00 0.00 0.00 91 1010.3
20210804012332 46 329 0.0 0.0 0.00 0.00 0.00 91 1010.2
20210804011832 46 329 0.0 0.0 0.00 0.00 0.00 91 1010.1
20210804011332 46 329 0.0 0.0 0.00 0.00 0.00 91 1010.1
20210804010833 46 329 0.0 0.0 0.00 0.00 0.00 91 1010.1
20210804010331 47 329 0.0 0.0 0.00 0.00 0.00 91 1010.1
20210804005831 47 329 0.0 0.0 0.00 0.00 0.00 91 1010.1
20210804005331 47 329 0.0 0.0 0.00 0.00 0.00 91 1010.1
20210804004831 47 329 0.0 0.0 0.00 0.00 0.00 91 1010.1
20210804004331 47 329 0.0 0.0 0.00 0.00 0.00 91 1010.0
20210804003833 47 329 0.0 0.0 0.00 0.00 0.00 91 1010.0
20210804003332 47 329 0.0 0.0 0.00 0.00 0.00 91 1010.0
20210804002830 47 329 0.0 0.0 0.00 0.00 0.00 91 1010.0
20210804002330 47 329 0.0 0.0 0.00 0.00 0.00 91 1009.9
20210804001821 48 329 0.0 0.0 0.00 0.00 0.00 91 1009.9
20210804001320 48 329 0.0 0.0 0.00 0.00 0.00 91 1009.9
20210804000816 48 329 0.0 0.0 0.00 0.00 0.00 91 1009.9
20210804000316 48 329 0.0 0.0 0.00 0.00 0.00 91 1009.8
20210803235813 48 329 0.0 0.0 0.00 0.00 0.00 91 1009.8
20210803235315 48 329 0.0 0.0 0.00 0.00 0.00 91 1009.7
20210803234814 48 329 0.0 0.0 0.00 0.00 0.00 91 1009.7
20210803234312 48 329 0.0 0.0 0.00 0.00 0.00 91 1009.7
20210803233811 48 329 0.0 0.0 0.00 0.00 0.00 90 1009.6
20210803233310 48 329 0.0 0.0 0.00 0.00 0.00 91 1009.5
20210803232812 49 329 0.0 0.0 0.00 0.00 0.00 91 1009.5
20210803232306 49 329 0.0 0.0 0.00 0.00 0.00 90 1009.4
20210803231805 49 329 0.0 0.0 0.00 0.00 0.00 90 1009.4
20210803231305 49 329 0.0 0.0 0.00 0.00 0.00 90 1009.4
20210803230806 49 329 0.0 0.0 0.00 0.00 0.00 90 1009.4
20210803230305 49 329 0.0 0.0 0.00 0.00 0.00 90 1009.3
20210803225806 49 329 0.0 0.0 0.00 0.00 0.00 90 1009.3
20210803225305 49 329 0.0 0.0 0.00 0.00 0.00 89 1009.3
20210803224802 49 329 0.0 0.0 0.00 0.00 0.00 89 1009.3
20210803224304 49 329 0.0 0.0 0.00 0.00 0.00 89 1009.2
20210803223803 49 329 0.0 0.0 0.00 0.00 0.00 89 1009.2
20210803223305 50 329 0.0 0.0 0.00 0.00 0.00 89 1009.2
20210803222802 50 329 0.0 0.0 0.00 0.00 0.00 89 1009.2
20210803222306 50 329 0.0 0.0 0.00 0.00 0.00 89 1009.1
20210803221803 50 329 0.0 0.0 0.00 0.00 0.00 89 1009.1
20210803221303 50 329 0.0 0.0 0.00 0.00 0.00 89 1009.0
20210803220803 50 329 0.0 0.0 0.00 0.00 0.00 89 1008.9
20210803220302 50 329 0.0 0.0 0.00 0.00 0.00 88 1008.9
20210803215803 50 329 0.0 0.0 0.00 0.00 0.00 89 1008.9
20210803215305 51 329 0.0 0.0 0.00 0.00 0.00 89 1008.8
20210803214802 51 329 0.0 0.0 0.00 0.00 0.00 88 1008.8
20210803214303 51 329 0.0 0.0 0.00 0.00 0.00 88 1008.7
20210803213803 51 329 0.0 0.0 0.00 0.00 0.00 88 1008.7
20210803213302 51 329 0.0 0.0 0.00 0.00 0.00 88 1008.7
20210803212803 51 329 0.0 0.0 0.00 0.00 0.00 88 1008.6
20210803212305 51 329 0.0 0.0 0.00 0.00 0.00 88 1008.7
20210803211802 51 329 0.0 0.0 0.00 0.00 0.00 87 1008.5
20210803211302 51 329 0.0 0.0 0.00 0.00 0.00 87 1008.5
20210803210803 52 329 0.0 0.0 0.00 0.00 0.00 87 1008.4
20210803210302 52 329 0.0 0.0 0.00 0.00 0.00 87 1008.4
20210803205802 52 329 0.0 0.0 0.00 0.00 0.00 87 1008.3
20210803205305 52 329 0.0 0.0 0.00 0.00 0.00 87 1008.3
20210803204802 53 329 0.0 0.0 0.00 0.00 0.00 86 1008.2
20210803204303 53 329 0.0 0.0 0.00 0.00 0.00 86 1008.2
20210803203803 53 329 0.0 0.0 0.00 0.00 0.00 85 1008.0
20210803203301 53 329 0.0 0.0 0.00 0.00 0.00 85 1008.1
20210803202758 53 329 0.0 0.0 0.00 0.00 0.00 85 1008.1
20210803202258 54 329 0.0 0.0 0.00 0.00 0.00 84 1008.0
20210803201752 54 329 0.0 0.0 0.00 0.00 0.00 84 1008.0
20210803201241 54 329 0.0 0.0 0.00 0.00 0.00 83 1007.9
20210803200738 55 329 0.0 0.0 0.00 0.00 0.00 83 1007.9
20210803200237 55 329 0.0 0.0 0.00 0.00 0.00 83 1007.9
20210803195736 55 329 0.0 0.0 0.00 0.00 0.00 82 1007.9
20210803195232 56 329 0.0 0.0 0.00 0.00 0.00 81 1007.9
20210803194734 56 329 0.0 0.0 0.00 0.00 0.00 81 1007.8
20210803194234 56 329 0.0 0.0 0.00 0.00 0.00 80 1007.7
20210803193730 56 329 0.0 0.0 0.00 0.00 0.00 80 1007.7
20210803193230 56 329 0.0 0.0 0.00 0.00 0.00 80 1007.6
20210803192723 56 329 0.0 0.0 0.00 0.00 0.00 79 1007.5
20210803192224 56 329 0.0 0.0 0.00 0.00 0.00 79 1007.4
20210803191722 57 329 0.0 0.0 0.00 0.00 0.00 79 1007.4
20210803191226 57 329 0.0 0.0 0.00 0.00 0.00 78 1007.3
20210803190721 57 329 0.0 0.0 0.00 0.00 0.00 77 1007.3
20210803190221 57 329 0.0 0.0 0.00 0.00 0.00 77 1007.2
20210803185722 58 329 0.0 0.0 0.00 0.00 0.00 76 1007.2
20210803185220 58 329 0.0 0.0 0.00 0.00 0.00 75 1007.2
20210803184723 58 329 0.0 0.0 0.00 0.00 0.00 75 1007.1
20210803184220 58 329 0.0 0.0 0.00 0.00 0.00 74 1007.1
20210803183721 59 329 0.0 0.0 0.00 0.00 0.00 74 1007.0
20210803183221 59 329 0.0 0.0 0.00 0.00 0.00 74 1007.0
20210803182721 59 329 0.0 0.0 0.00 0.00 0.00 72 1007.0
20210803182220 59 329 0.0 0.0 0.00 0.00 0.00 72 1007.0
20210803181721 60 329 0.0 0.0 0.00 0.00 0.00 71 1006.9
20210803181220 60 329 0.0 0.0 0.00 0.00 0.00 70 1006.8
20210803180717 60 329 0.0 0.0 0.00 0.00 0.00 69 1006.8
20210803180216 60 329 0.0 0.0 0.00 0.00 0.00 69 1006.8
20210803175711 61 329 0.0 0.0 0.00 0.00 0.00 67 1006.7
20210803175213 61 329 0.0 0.0 0.00 0.00 0.00 65 1006.6
20210803174707 62 329 0.0 0.0 0.00 0.00 0.00 63 1006.5
20210803174204 62 329 0.0 0.0 0.00 0.00 0.00 63 1006.5
20210803173703 62 327 0.0 1.0 0.00 0.00 0.00 62 1006.4
20210803173202 62 317 0.0 1.0 0.00 0.00 0.00 62 1006.3
20210803172701 62 281 0.0 0.0 0.00 0.00 0.00 63 1006.3
20210803172153 62 281 0.0 4.0 0.00 0.00 0.00 60 1006.2
20210803171648 62 355 0.0 7.0 0.00 0.00 0.00 60 1006.2
20210803171142 62 350 0.0 7.0 0.00 0.00 0.00 60 1006.1
20210803170639 62 321 0.0 4.0 0.00 0.00 0.00 60 1006.1
20210803170140 62 336 0.0 4.0 0.00 0.00 0.00 60 1006.0
20210803165638 62 351 0.0 2.0 0.00 0.00 0.00 62 1006.0
20210803165134 63 327 0.0 3.0 0.00 0.00 0.00 66 1005.9
20210803164633 63 323 0.0 3.0 0.00 0.00 0.00 64 1005.8
20210803164131 63 340 0.0 1.0 0.00 0.00 0.00 62 1005.7
20210803163633 63 344 0.0 1.0 0.00 0.00 0.00 62 1005.7
20210803163130 63 337 0.0 7.0 0.00 0.00 0.00 62 1005.6
20210803162635 63 333 0.0 7.0 0.00 0.00 0.00 62 1005.5
20210803162133 63 313 1.0 4.0 0.00 0.00 0.00 63 1005.5
20210803161633 63 353 0.0 0.0 0.00 0.00 0.00 64 1005.4
20210803161130 63 355 0.0 9.0 0.00 0.00 0.00 63 1005.3
20210803160634 63 0 0.0 9.0 0.00 0.00 0.00 65 1005.3
20210803160130 63 354 1.0 9.0 0.00 0.00 0.00 66 1005.3
20210803155628 63 0 1.0 5.0 0.00 0.00 0.00 67 1005.2
20210803155125 63 329 0.0 6.0 0.00 0.00 0.00 68 1005.1
20210803154625 62 0 0.0 6.0 0.00 0.00 0.00 68 1005.1
20210803154124 62 333 0.0 7.0 0.00 0.00 0.00 68 1005.1
20210803153620 62 353 0.0 11.0 0.00 0.00 0.00 69 1005.0
20210803153120 62 351 2.0 11.0 0.00 0.00 0.00 70 1005.1
20210803152619 62 327 0.0 3.0 0.00 0.00 0.00 72 1005.0
20210803152121 62 329 0.0 9.0 0.00 0.00 0.00 71 1004.9
20210803151619 62 348 2.0 9.0 0.00 0.00 0.00 69 1004.8
20210803151119 62 338 0.0 6.0 0.00 0.00 0.00 69 1004.7
20210803150617 62 351 0.0 3.0 0.00 0.00 0.00 69 1004.7
20210803150117 62 350 0.0 3.0 0.00 0.00 0.00 69 1004.7
20210803145618 62 353 0.0 3.0 0.00 0.00 0.00 69 1004.6
20210803145116 62 345 0.0 3.0 0.00 0.00 0.00 70 1004.5
20210803144616 62 347 0.0 2.0 0.00 0.00 0.00 72 1004.5
20210803144114 62 316 0.0 5.0 0.00 0.00 0.00 71 1004.5
20210803143616 62 316 0.0 5.0 0.00 0.00 0.00 70 1004.3
20210803143116 62 0 0.0 3.0 0.00 0.00 0.00 71 1004.4
20210803142614 62 25 0.0 3.0 0.00 0.00 0.00 72 1004.3
20210803142115 62 323 0.0 0.0 0.00 0.00 0.00 74 1004.3
20210803141614 62 323 0.0 3.0 0.00 0.00 0.00 72 1004.3
20210803141114 62 299 0.0 3.0 0.00 0.00 0.00 71 1004.2
20210803140614 63 354 0.0 6.0 0.00 0.00 0.00 69 1004.2
20210803140115 64 0 0.0 6.0 0.00 0.00 0.00 65 1004.2
20210803135616 65 0 1.0 5.0 0.00 0.00 0.00 63 1004.1
20210803135115 65 340 0.0 4.0 0.00 0.00 0.00 62 1003.8
20210803134614 65 336 0.0 3.0 0.00 0.00 0.00 63 1003.9
20210803134115 64 305 0.0 3.0 0.00 0.00 0.00 63 1003.7
20210803133613 64 321 0.0 0.0 0.00 0.00 0.00 64 1003.6
20210803133115 63 321 0.0 0.0 0.00 0.00 0.00 65 1003.6
20210803132615 62 321 0.0 4.0 0.00 0.00 0.00 66 1003.6
20210803132116 62 0 0.0 4.0 0.00 0.00 0.00 69 1003.7
20210803131615 62 353 0.0 0.0 0.00 0.00 0.00 68 1003.5
20210803131116 62 353 0.0 3.0 0.00 0.00 0.00 67 1003.6
20210803130614 62 351 0.0 3.0 0.00 0.00 0.00 66 1003.4
20210803130112 62 354 0.0 6.0 0.00 0.00 0.00 67 1003.5
20210803125616 63 338 0.0 6.0 0.00 0.00 0.00 66 1003.3
20210803125115 63 0 1.0 4.0 0.00 0.00 0.00 64 1003.3
20210803124608 63 343 0.0 6.0 0.00 0.00 0.00 64 1003.2
20210803124111 64 355 0.0 6.0 0.00 0.00 0.00 65 1003.1
20210803123606 64 348 1.0 5.0 0.00 0.00 0.00 64 1003.0
20210803123103 64 358 0.0 3.0 0.00 0.00 0.00 63 1002.9
20210803122606 65 275 0.0 5.0 0.00 0.00 0.00 62 1002.8
20210803122102 65 0 0.0 5.0 0.00 0.00 0.00 60 1002.8
20210803121601 65 355 1.0 5.0 0.00 0.00 0.00 57 1002.6
20210803121101 64 338 1.0 5.0 0.00 0.00 0.00 57 1002.5
20210803120603 64 320 0.0 5.0 0.00 0.00 0.00 58 1002.5
20210803120058 64 350 0.0 6.0 0.00 0.00 0.00 57 1002.4
20210803115554 64 321 1.0 9.0 0.00 0.00 0.00 58 1002.4
20210803115054 64 343 0.0 9.0 0.00 0.00 0.00 59 1002.3
20210803114553 64 341 0.0 5.0 0.00 0.00 0.00 59 1002.3
20210803114050 64 319 0.0 5.0 0.00 0.00 0.00 59 1002.1
20210803113549 64 350 1.0 6.0 0.00 0.00 0.00 58 1002.1
20210803113049 63 321 0.0 10.0 0.00 0.00 0.00 63 1002.1
20210803112543 62 320 0.0 10.0 0.00 0.00 0.00 64 1002.0
20210803112042 62 329 2.0 6.0 0.00 0.00 0.00 65 1002.1
20210803111539 63 314 0.0 5.0 0.00 0.00 0.00 66 1001.9
20210803111037 63 344 1.0 6.0 0.00 0.00 0.00 67 1002.0
20210803110538 62 0 0.0 6.0 0.00 0.00 0.00 70 1001.9
20210803110034 62 278 0.0 6.0 0.00 0.00 0.00 72 1001.9
20210803105536 61 340 1.0 6.0 0.00 0.00 0.00 75 1001.7
20210803105039 60 344 0.0 4.0 0.00 0.00 0.00 76 1001.7
20210803104532 60 344 0.0 7.0 0.00 0.00 0.00 77 1001.7
20210803104031 60 348 0.0 7.0 0.00 0.00 0.00 78 1001.6
20210803103529 60 344 0.0 4.0 0.00 0.00 0.00 79 1001.5
20210803103028 60 358 0.0 10.0 0.00 0.00 0.00 79 1001.5
20210803102527 60 354 1.0 10.0 0.00 0.00 0.00 78 1001.4
20210803102029 60 354 0.0 1.0 0.00 0.00 0.00 79 1001.3
20210803101527 60 0 0.0 2.0 0.00 0.00 0.00 79 1001.2
20210803101022 60 0 0.0 2.0 0.00 0.00 0.00 79 1001.1
20210803100517 60 358 0.0 0.0 0.00 0.00 0.00 80 1001.1
20210803100018 59 358 0.0 1.0 0.00 0.00 0.00 80 1001.0
20210803095523 59 0 0.0 4.0 0.00 0.00 0.00 79 1001.0
20210803095015 59 11 0.0 4.0 0.00 0.00 0.00 79 1000.9
20210803094513 59 350 0.0 1.0 0.00 0.00 0.00 80 1000.8
20210803094016 59 345 0.0 3.0 0.00 0.00 0.00 80 1000.8
20210803093511 59 341 0.0 3.0 0.00 0.00 0.00 80 1000.8
20210803093009 59 319 0.0 6.0 0.00 0.00 0.00 80 1000.7
20210803092514 58 0 0.0 6.0 0.00 0.00 0.00 80 1000.7
20210803092015 58 1 0.0 3.0 0.00 0.00 0.00 82 1000.7
20210803091507 58 27 0.0 3.0 0.00 0.00 0.00 83 1000.7
20210803091012 58 0 0.0 3.0 0.00 0.00 0.00 83 1000.6
20210803090509 57 351 0.0 5.0 0.00 0.00 0.00 84 1000.6
20210803090009 57 1 0.0 5.0 0.00 0.00 0.00 84 1000.6
20210803085504 57 350 0.0 4.0 0.00 0.00 0.00 84 1000.6